Temperature
13 13 13 13 13 13 13 12 12 12 12 12 12 12 12 12 11 11 11 11 11 10 10 10 10 10 10 10 10 9 9 9 9 9 9 9 9 9 9 9 9 9 9
13 13 13 13 13 12 12 12 12 12 12 12 12 12 11 11 11 11 10 10 10 10 10 10 9 9 9 9 9 9 9 8 8 8 8 8 8 8 8 8 8 8 8
12 12 12 12 12 12 12 12 12 11 11 11 11 11 11 11 10 10 10 10 9 9 9 9 9 9 8 8 8 8 8 8 8 8 8 8 8 8 8 8 8 8 8
12 12 12 12 12 12 11 11 11 11 11 11 11 11 10 10 10 10 9 9 9 9 9 8 8 8 8 8 7 7 7 7 7 7 7 7 7 7 7 7 7 7 7
12 12 11 11 11 11 11 11 11 11 11 10 10 10 10 10 9 9 9 8 8 8 8 8 8 8 7 7 7 7 7 7 7 7 7 7 7 7 7 7 7 7 7
11 11 11 11 11 11 11 10 10 10 10 10 10 10 9 9 9 9 8 8 8 8 7 7 7 7 7 7 6 6 6 6 6 6 6 6 6 6 6 6 6 6 6
11 10 10 10 10 10 10 10 10 10 10 9 9 9 9 9 8 8 8 7 7 7 7 7 7 6 6 6 6 6 6 6 6 6 6 6 5 5 5 5 6 5 6
10 10 10 10 10 10 10 9 9 9 9 8 8 7 7 7 7 7 7 7 7 7 6 6 6 6 6 6 6 5 5 5 5 5 5 5 5 5 5 5 5 5 5
10 10 10 9 9 9 9 9 8 8 8 7 7 6 6 6 6 6 6 6 6 6 6 6 6 5 5 5 5 5 5 5 4 4 4 4 4 5 5 5 5 5 5
9 9 9 9 9 9 8 8 8 7 7 7 6 6 5 5 4 5 6 6 6 6 5 5 5 5 5 5 4 4 4 4 4 4 4 4 4 4 4 4 4 4 4
9 9 9 8 8 8 8 7 7 7 6 6 6 5 5 5 4 4 4 5 5 5 5 5 5 4 4 4 4 4 4 4 4 4 3 3 4 4 4 4 4 4 4
9 8 8 8 8 7 7 7 6 6 6 6 5 5 5 4 4 3 3 3 4 5 5 4 4 4 4 4 3 3 3 3 3 3 3 3 3 3 3 3 4 4 4
8 8 8 8 7 7 7 6 6 6 5 5 5 4 4 4 3 3 2 2 2 3 4 4 4 4 3 3 3 3 3 3 3 3 3 3 3 3 3 3 3 3 3
8 8 7 7 7 6 6 6 6 5 5 5 4 4 4 4 3 3 2 2 2 2 3 3 3 3 3 3 3 3 3 3 3 3 3 3 3 3 3 3 3 3 3
7 7 7 7 6 6 6 5 5 5 5 4 4 4 4 3 3 3 2 2 1 1 1 2 2 3 2 2 2 2 2 2 2 2 2 2 2 3 3 2 3 3 3
7 7 6 6 6 6 5 5 5 5 4 4 4 3 3 3 3 2 2 2 1 1 1 1 2 2 2 2 2 2 2 2 2 2 2 2 2 2 2 2 2 2 2
6 6 6 6 5 5 5 5 4 4 4 4 3 3 3 3 2 2 2 2 1 1 1 1 1 2 2 2 2 2 2 2 2 2 2 2 2 2 2 2 2 2 2
6 6 5 5 5 4 4 4 4 4 3 3 3 3 3 2 2 2 2 1 1 1 1 1 1 1 1 1 1 2 2 2 2 2 2 2 2 2 2 2 2 2 2
5 5 5 5 4 4 4 3 3 3 3 3 2 2 2 2 2 2 1 1 1 1 0 0 1 1 1 1 1 2 2 2 2 2 2 2 2 2 2 2 2 2 2
5 5 4 4 4 3 3 3 3 2 2 2 2 2 2 1 1 1 1 1 1 1 0 0 0 0 0 1 1 1 1 1 2 2 2 1 1 1 2 2 2 2 2
4 4 4 3 3 3 3 2 2 2 2 2 2 1 1 1 1 1 0 0 0 0 0 -0 -0 -0 0 0 0 0 0 1 1 1 1 1 1 1 1 1 1 2 2
4 3 3 3 3 2 2 2 2 2 1 1 1 1 1 1 1 1 0 0 -0 -0 -0 -1 -0 -1 -0 -0 -0 -0 -0 -0 0 1 0 1 1 1 1 1 1 1 2
3 3 3 3 2 2 2 2 1 1 1 1 1 1 1 1 0 0 0 0 0 -0 -1 -1 -1 -1 -1 -1 -1 -0 -0 -0 -0 -0 0 1 1 1 1 1 1 1 1
2 2 2 2 2 2 1 1 1 1 1 1 1 0 0 0 0 0 0 0 0 -0 -0 -1 -1 -1 -1 -1 -1 -1 -1 -0 0 0 -0 -0 1 1 1 1 1 1 1
2 2 1 1 1 1 1 1 0 0 1 1 0 0 0 -0 -0 -0 -0 -0 -0 -0 -0 -0 -1 -1 -0 -1 -1 -0 -0 -0 -0 0 -0 -1 -0 0 1 1 1 1 1
1 1 1 1 1 0 0 0 -0 -0 0 0 0 0 -0 -0 -0 -1 -1 -1 -1 -1 -1 -0 -0 -0 -0 -0 -0 -1 -1 -1 -1 -1 -1 -1 -1 -1 -1 0 0 0 0
Wind_Speed
5 5 5 7 7 7 7 6 6 6 6 6 6 5 5 5 6 6 7 9 10 10 11 12 13 13 13 13 13 14 14 15 15 15 16 15 15 15 15 15 16 16 16
6 5 4 5 6 6 6 5 5 4 4 4 4 5 4 4 5 5 6 8 9 10 11 12 13 14 14 14 14 15 15 16 16 16 16 16 16 16 16 17 17 17 17
7 6 4 4 4 6 6 5 5 4 3 4 4 4 4 4 4 5 6 7 8 9 10 12 14 14 14 15 15 16 16 16 16 16 17 17 16 16 17 17 18 18 18
7 7 4 3 5 6 5 3 3 3 3 3 3 3 3 3 4 5 5 6 7 8 9 12 13 14 15 16 16 16 16 16 17 17 17 17 18 17 17 18 18 18 18
7 7 4 4 5 5 4 3 3 2 3 4 4 3 3 3 3 4 4 5 6 7 8 11 13 13 15 17 17 18 18 18 18 18 18 18 19 19 18 19 19 19 20
7 7 5 5 5 4 3 3 3 3 2 3 4 4 4 4 3 2 3 4 6 8 9 10 11 12 15 17 18 19 19 19 19 19 18 19 19 20 19 19 20 20 20
6 6 4 4 4 3 2 2 2 3 4 3 3 4 4 3 3 2 2 3 4 7 8 9 10 11 11 15 17 19 20 20 20 20 19 20 20 21 21 20 20 21 21
5 5 4 3 3 2 3 3 2 2 2 4 2 3 4 4 3 3 3 3 4 6 6 9 10 10 11 11 14 18 20 21 21 20 20 21 21 21 22 21 21 21 21
4 5 4 3 2 2 1 2 2 2 1 3 2 1 1 3 6 3 3 3 5 5 5 7 9 10 11 11 13 16 19 21 21 21 21 21 21 21 22 21 21 21 22
4 4 4 3 2 2 1 1 1 1 0 1 2 1 1 2 2 5 4 4 5 6 6 7 8 10 11 11 13 16 19 20 22 22 22 22 21 21 21 21 21 21 21
3 3 3 3 2 1 1 1 1 1 0 1 1 1 1 2 3 3 7 8 7 5 5 6 7 8 10 11 12 15 19 21 21 22 22 22 22 21 21 21 21 21 21
1 2 2 2 1 1 1 1 0 1 1 1 1 2 2 2 3 3 6 9 10 8 7 6 5 6 9 11 13 18 20 21 21 22 22 22 22 22 22 21 21 21 22
0 1 1 1 1 1 1 1 1 1 1 2 2 2 3 3 4 4 6 7 9 8 6 4 5 6 9 11 13 18 19 21 21 21 21 21 21 21 21 21 21 21 22
2 1 0 0 1 1 1 1 1 1 1 2 3 3 3 3 3 4 4 6 8 7 6 6 5 5 8 11 14 18 16 21 21 21 21 21 21 21 21 20 20 20 21
1 1 0 0 1 1 1 1 1 2 2 2 3 3 3 4 4 4 4 5 5 8 9 7 4 5 9 11 15 14 15 19 21 21 21 21 20 20 20 19 19 20 20
1 1 0 0 1 1 1 1 2 2 2 3 3 3 4 4 4 4 4 4 5 6 8 7 7 8 10 12 16 15 15 20 20 20 21 20 20 19 19 19 19 19 19
1 1 1 1 1 1 1 1 2 3 3 4 4 4 5 5 4 4 4 4 5 6 9 10 7 8 8 10 12 13 14 13 14 18 19 19 18 18 18 18 18 18 18
2 2 1 1 2 2 2 2 3 4 4 4 5 5 6 5 6 5 5 6 6 6 7 11 10 8 9 10 10 11 11 12 12 16 18 18 17 17 17 17 17 17 17
2 1 1 2 2 3 3 3 4 4 5 5 5 5 6 6 6 6 6 6 6 7 6 8 10 8 7 8 9 10 10 9 11 13 15 15 16 16 16 16 16 17 16
2 2 2 2 3 3 3 4 4 4 5 5 5 5 6 6 7 7 7 7 6 7 7 8 8 8 7 7 7 8 10 8 9 10 12 13 14 15 15 15 16 16 15
1 1 1 2 2 3 3 4 4 4 5 5 5 5 6 8 9 8 7 7 7 6 7 8 8 8 8 8 8 7 9 9 8 5 7 8 9 8 10 13 14 15 13
1 1 1 2 3 3 6 7 6 4 4 5 6 6 7 7 10 12 13 12 10 8 8 7 8 9 10 9 8 8 8 8 7 4 6 8 6 7 7 8 14 14 12
1 1 2 2 3 5 7 8 8 4 4 5 5 6 6 7 10 7 10 12 10 11 11 9 9 10 10 9 9 9 8 8 8 7 6 6 5 6 7 10 14 13 12
1 2 3 3 4 5 8 8 8 4 4 5 5 6 6 7 8 9 7 7 7 8 9 8 8 9 9 8 8 7 7 7 7 5 4 4 5 5 7 8 12 12 11
2 2 3 3 4 6 8 9 8 3 4 6 6 6 6 7 12 12 7 7 8 8 10 12 12 12 13 13 10 5 5 6 7 5 3 3 4 5 5 5 8 11 12
2 2 3 3 4 5 8 9 8 3 4 5 5 6 9 9 12 11 6 6 8 8 8 9 9 10 9 9 10 6 5 5 5 4 3 3 4 4 4 3 4 7 8
Wind_Direction
84 75 67 62 57 55 53 46 42 36 30 24 24 27 21 17 16 15 7 4 0 356 352 349 345 341 338 336 334 331 328 327 322 319 314 309 306 304 301 301 299 296 295
96 84 69 59 52 51 53 51 42 34 22 21 14 16 14 12 12 6 1 359 357 355 351 349 345 341 337 334 332 329 325 321 318 316 316 311 305 302 300 297 295 293 291
99 92 75 56 47 50 51 46 37 34 18 12 1 358 4 3 2 355 354 358 356 352 349 347 342 338 335 333 330 327 323 319 316 314 312 312 308 305 302 299 296 293 292
99 92 76 57 49 51 49 40 24 18 8 0 346 337 343 349 348 348 353 355 354 350 347 344 339 336 334 332 328 325 322 319 316 314 311 309 307 302 301 300 298 295 293
95 91 78 61 56 53 43 29 25 19 1 349 337 333 329 321 324 339 349 350 348 345 344 341 339 335 332 329 326 324 322 319 315 310 309 307 306 301 298 297 295 294 291
92 89 79 62 58 53 35 27 24 17 2 335 330 329 317 305 311 316 320 339 342 338 336 336 336 331 328 327 325 323 321 318 316 313 309 309 306 304 298 295 293 292 291
95 91 78 62 57 59 39 25 25 16 8 349 356 336 318 303 303 299 312 319 325 326 329 332 330 326 323 320 320 321 319 317 314 313 310 308 305 305 300 297 294 291 290
98 94 85 73 61 61 40 28 30 29 12 13 18 357 340 332 324 299 295 297 303 320 320 322 321 316 315 316 314 316 317 317 315 313 311 309 305 303 300 298 295 292 290
96 95 92 83 65 71 57 21 34 56 15 5 26 68 8 306 314 300 289 291 298 297 302 310 307 308 310 312 312 313 315 315 314 313 311 310 305 303 301 299 298 295 292
94 93 91 84 70 62 62 11 27 19 101 334 349 355 222 240 296 310 306 293 295 294 292 303 301 303 307 310 310 310 313 313 312 312 311 311 307 305 302 301 300 299 296
83 85 90 79 63 53 46 17 6 353 264 244 274 287 304 292 249 264 298 307 307 290 289 290 291 299 306 309 308 309 313 313 312 312 312 311 310 307 304 301 301 300 298
63 64 78 71 61 41 7 333 331 323 296 271 271 260 259 269 272 268 285 302 306 302 299 287 286 294 303 307 306 312 313 312 311 311 311 311 309 309 308 306 301 299 298
240 246 38 40 15 3 352 1 336 306 283 270 270 272 265 263 267 271 282 294 298 300 296 286 279 290 304 307 305 311 311 312 310 310 310 310 309 309 306 306 307 303 300
209 211 13 349 327 327 339 354 324 292 293 275 284 279 279 275 270 271 272 291 305 302 298 288 291 282 305 307 306 311 309 309 310 309 309 309 308 308 305 306 307 307 307
183 153 165 317 315 315 316 329 300 290 286 278 277 280 282 280 275 272 271 268 280 300 301 294 295 290 308 308 308 310 306 307 308 307 307 307 307 307 306 307 307 307 308
158 168 199 257 305 317 318 317 296 288 290 288 283 285 288 285 282 275 272 273 264 270 285 289 291 298 304 307 310 311 306 308 308 307 307 308 308 307 307 308 307 308 309
171 194 217 240 264 283 302 296 290 289 290 296 295 291 290 288 288 289 285 281 276 270 281 294 293 299 297 300 309 310 310 309 308 308 312 314 313 312 311 311 311 311 312
198 206 212 235 260 273 274 272 282 286 284 289 291 293 294 298 294 293 290 286 283 276 278 293 302 305 302 301 303 306 315 316 312 310 315 316 319 318 316 316 316 316 314
209 219 214 237 259 267 270 269 268 273 277 277 280 285 292 297 297 296 293 290 289 291 283 289 299 303 304 306 312 313 312 311 317 318 319 320 321 323 324 326 326 326 323
211 227 243 251 259 268 268 270 274 276 279 281 281 281 286 287 288 292 294 291 295 299 297 295 300 305 305 305 310 317 319 321 319 320 322 322 323 325 327 329 330 330 328
239 243 258 276 280 272 266 278 281 282 285 290 289 287 287 293 298 299 301 300 299 297 301 302 302 307 310 317 317 312 313 316 312 306 319 321 322 321 326 328 330 332 333
288 284 274 278 286 289 294 298 300 280 283 285 291 293 293 293 301 304 305 305 304 300 299 298 300 304 305 307 308 310 312 318 312 319 321 313 319 315 319 324 328 333 337
313 300 287 284 285 291 305 303 302 297 280 281 286 293 300 302 307 298 300 306 307 306 302 296 295 295 300 304 306 306 307 307 298 304 313 301 314 313 319 323 331 336 341
286 280 285 285 289 299 310 309 309 300 282 280 281 282 286 294 299 304 303 307 304 303 302 298 287 289 294 299 296 293 294 299 295 299 302 290 307 311 321 323 334 346 346
297 290 287 287 289 300 311 314 318 298 287 284 282 287 291 290 301 312 314 308 310 311 313 310 306 307 311 317 321 319 318 317 310 310 316 305 310 319 320 323 337 351 354
296 302 301 291 288 295 309 316 320 303 298 298 295 290 296 302 307 313 310 306 307 310 316 320 322 322 321 321 325 318 302 304 305 304 323 330 316 328 327 320 338 351 355
Height
1532 1533 1533 1533 1533 1533 1533 1533 1532 1532 1532 1531 1530 1530 1529 1528 1527 1525 1524 1523 1521 1519 1518 1517 1515 1513 1512 1510 1509 1507 1505 1503 1502 1500 1498 1497 1496 1494 1493 1492 1491 1489 1488
1532 1532 1532 1532 1532 1532 1532 1531 1531 1531 1530 1529 1529 1528 1527 1526 1524 1523 1522 1520 1519 1517 1515 1514 1512 1510 1508 1506 1505 1503 1501 1499 1497 1495 1494 1492 1490 1489 1488 1486 1485 1484 1483
1531 1531 1531 1531 1531 1531 1531 1530 1530 1529 1528 1527 1526 1525 1524 1523 1522 1521 1519 1518 1516 1514 1512 1510 1508 1507 1505 1503 1501 1499 1496 1494 1492 1490 1489 1487 1485 1483 1482 1481 1479 1478 1477
1530 1530 1530 1530 1530 1530 1529 1529 1528 1527 1526 1525 1524 1523 1522 1520 1519 1518 1516 1514 1513 1511 1509 1507 1505 1503 1501 1499 1496 1494 1492 1489 1487 1485 1483 1481 1479 1477 1476 1474 1473 1472 1470
1529 1529 1529 1529 1529 1528 1528 1527 1526 1525 1524 1522 1521 1520 1518 1517 1516 1515 1513 1512 1510 1508 1506 1503 1501 1499 1497 1494 1492 1490 1487 1484 1482 1480 1477 1475 1473 1471 1469 1468 1466 1465 1464
1528 1528 1528 1528 1527 1527 1526 1525 1524 1523 1522 1520 1518 1516 1515 1514 1512 1511 1510 1509 1507 1505 1502 1500 1498 1495 1493 1490 1487 1485 1482 1479 1477 1474 1472 1469 1467 1465 1463 1461 1460 1458 1457
1526 1527 1526 1526 1525 1525 1524 1523 1522 1521 1519 1518 1515 1512 1510 1510 1509 1508 1506 1505 1503 1501 1499 1497 1494 1491 1488 1486 1483 1480 1477 1474 1472 1469 1466 1464 1461 1459 1457 1454 1453 1451 1450
1525 1525 1525 1524 1524 1523 1522 1521 1520 1518 1517 1516 1514 1510 1507 1506 1505 1504 1503 1501 1499 1497 1495 1493 1490 1487 1484 1481 1478 1475 1472 1469 1466 1464 1461 1458 1455 1453 1450 1447 1446 1444 1443
1523 1523 1523 1522 1522 1521 1520 1519 1518 1517 1515 1514 1513 1512 1509 1505 1501 1499 1498 1497 1495 1493 1491 1488 1486 1483 1480 1477 1473 1470 1467 1464 1461 1458 1455 1452 1450 1447 1444 1441 1439 1437 1435
1521 1521 1521 1520 1520 1519 1518 1517 1516 1515 1514 1512 1511 1511 1510 1507 1503 1497 1494 1493 1492 1489 1487 1484 1482 1479 1476 1472 1469 1466 1462 1459 1456 1453 1450 1447 1444 1440 1438 1435 1433 1431 1428
1519 1519 1518 1518 1517 1516 1516 1515 1514 1513 1511 1510 1509 1508 1506 1505 1502 1498 1491 1487 1486 1484 1482 1480 1477 1474 1471 1468 1464 1461 1457 1454 1451 1448 1445 1441 1438 1435 1432 1429 1427 1424 1422
1516 1516 1516 1515 1515 1514 1513 1512 1511 1510 1509 1508 1506 1505 1503 1502 1499 1496 1491 1485 1481 1478 1477 1475 1473 1470 1467 1463 1460 1456 1453 1449 1446 1442 1439 1436 1433 1429 1427 1423 1421 1418 1416
1513 1513 1513 1512 1512 1511 1510 1509 1508 1507 1506 1505 1503 1502 1500 1498 1496 1493 1489 1483 1478 1474 1471 1470 1468 1465 1462 1459 1455 1451 1448 1444 1440 1437 1434 1431 1428 1424 1421 1418 1415 1412 1409
1510 1510 1510 1509 1509 1508 1507 1506 1505 1504 1503 1501 1500 1498 1496 1495 1493 1490 1487 1482 1475 1469 1466 1465 1463 1461 1458 1454 1450 1447 1443 1439 1435 1432 1429 1426 1422 1419 1416 1413 1410 1407 1404
1507 1507 1507 1506 1506 1505 1504 1503 1502 1500 1499 1498 1496 1495 1493 1491 1489 1486 1484 1481 1477 1469 1462 1459 1458 1456 1453 1450 1446 1442 1438 1434 1430 1427 1424 1421 1417 1414 1411 1407 1404 1401 1398
1504 1504 1503 1503 1502 1501 1500 1499 1498 1497 1495 1494 1492 1491 1489 1487 1484 1482 1480 1477 1474 1470 1462 1456 1454 1452 1448 1445 1442 1438 1434 1429 1425 1422 1419 1415 1412 1409 1405 1402 1399 1396 1393
1500 1500 1500 1499 1498 1497 1497 1495 1494 1493 1492 1490 1489 1487 1484 1482 1480 1478 1475 1473 1470 1466 1460 1453 1451 1448 1444 1440 1436 1433 1429 1424 1420 1417 1414 1410 1407 1403 1400 1397 1394 1391 1387
1497 1496 1496 1495 1494 1494 1493 1492 1490 1489 1488 1486 1484 1482 1480 1478 1476 1473 1471 1468 1465 1462 1457 1450 1446 1443 1440 1436 1432 1428 1424 1420 1416 1412 1409 1406 1402 1398 1395 1392 1389 1385 1382
1493 1493 1492 1491 1491 1490 1489 1488 1487 1485 1484 1482 1480 1478 1476 1474 1471 1469 1466 1463 1460 1457 1453 1448 1442 1439 1435 1432 1428 1424 1420 1416 1412 1408 1405 1401 1398 1394 1391 1387 1384 1380 1377
1489 1489 1488 1488 1487 1486 1485 1484 1483 1482 1480 1479 1477 1475 1472 1470 1467 1464 1462 1459 1456 1453 1449 1445 1440 1435 1432 1428 1424 1419 1414 1411 1407 1404 1401 1398 1395 1391 1387 1384 1380 1377 1374
1485 1485 1484 1484 1483 1482 1481 1480 1479 1478 1476 1475 1473 1471 1469 1466 1464 1461 1458 1455 1452 1448 1445 1441 1437 1432 1428 1424 1420 1416 1412 1407 1403 1401 1397 1394 1391 1387 1384 1380 1377 1374 1371
1481 1481 1481 1480 1479 1478 1478 1477 1475 1474 1472 1470 1468 1466 1464 1462 1460 1457 1454 1451 1449 1445 1442 1438 1434 1430 1425 1422 1418 1414 1410 1405 1399 1398 1394 1390 1388 1384 1381 1378 1375 1372 1369
1477 1477 1477 1476 1475 1475 1474 1473 1471 1470 1468 1466 1464 1462 1460 1457 1455 1452 1450 1447 1444 1442 1439 1436 1431 1427 1423 1419 1415 1411 1408 1404 1400 1396 1392 1387 1385 1382 1379 1376 1373 1370 1367
1474 1473 1473 1472 1472 1471 1470 1469 1468 1466 1464 1463 1461 1458 1456 1453 1451 1448 1445 1442 1440 1437 1435 1432 1428 1424 1420 1417 1413 1410 1406 1402 1398 1395 1392 1387 1383 1380 1377 1374 1371 1369 1366
1470 1470 1469 1469 1468 1467 1466 1465 1464 1462 1460 1458 1457 1455 1452 1449 1447 1444 1441 1438 1435 1433 1430 1427 1424 1421 1417 1414 1411 1407 1403 1399 1395 1392 1390 1387 1382 1379 1376 1374 1371 1368 1366
1467 1466 1466 1465 1465 1463 1462 1461 1460 1458 1456 1454 1452 1450 1448 1446 1443 1441 1438 1435 1431 1428 1426 1422 1420 1417 1414 1411 1408 1405 1401 1398 1394 1390 1388 1386 1383 1379 1376 1374 1372 1369 1366